1508140800.3,4302,19.25,75052.3,14.03,-21.43,-22.93,0,*70
1508140801.5,4303,19.25,75050.0,14.05,-21.13,-22.63,0,*7D
1508140802.7,4304,19.25,75050.8,14.05,-20.63,-21.93,0,*70
1508140803.89,4305,19.25,75054.3,14.09,-20.39,-21.73,0,*7C
1508140805.08,4306,19.25,75052.0,14.09,-20.73,-22.03,0,*75
1508140806.32,4307,19.25,75052.5,14.11,-20.79,-22.27,0,*71
1508140807.57,4308,19.25,75052.0,14.11,-20.73,-22.17,0,*77
1508140808.81,4309,19.25,75052.5,14.13,-20.83,-22.21,0,*7E
1508140810.06,4310,19.25,75054.8,14.15,-21.17,-22.73,0,*7B
1508140811.3,4311,19.25,75050.5,14.15,-21.03,-22.53,0,*7D
1508140812.55,4312,19.31,75052.8,14.15,-20.53,-22.07,0,*7B
1508140813.81,4313,19.31,75052.0,14.19,-20.15,-21.53,0,*76
1508140815.01,4314,19.25,75048.0,14.19,-20.29,-21.73,0,*7C
1508140816.27,4315,19.31,75052.0,14.21,-20.73,-22.17,0,*78
1508140817.52,4316,19.31,75054.0,14.21,-21.47,-22.77,0,*7B
1508140818.71,4317,19.31,75054.8,14.23,-20.73,-22.07,0,*79
1508140819.97,4318,19.31,75056.8,14.21,-20.63,-22.17,0,*74
1508140821.17,4319,19.31,75054.3,14.23,-20.73,-22.27,0,*75
1508140822.37,4320,19.31,75056.3,14.23,-21.63,-23.09,0,*72
1508140823.57,4321,19.31,75052.5,14.23,-22.57,-24.05,0,*7C
1508140824.79,4322,19.25,75050.5,14.23,-22.21,-23.59,0,*70
1508140826.07,4323,19.31,75054.5,14.21,-22.47,-23.95,0,*73
1508140827.29,4324,19.31,75052.0,14.23,-22.11,-23.53,0,*7F
1508140828.53,4325,19.31,75056.3,14.25,-22.07,-23.53,0,*7F
1508140829.75,4326,19.31,75052.3,14.21,-22.27,-23.75,0,*7E
1508140830.98,4327,19.31,75052.5,14.21,-22.83,-24.35,0,*72
1508140832.23,4328,19.31,75054.0,14.21,-22.57,-24.11,0,*72
1508140833.48,4329,19.31,75052.5,14.23,-21.83,-23.33,0,*7C
1508140834.7,4330,19.31,75054.0,14.23,-21.77,-23.19,0,*77
1508140835.91,4331,19.31,75054.3,14.23,-22.93,-24.61,0,*77
1508140837.16,4332,19.31,75052.3,14.21,-22.97,-24.71,0,*73
1508140838.42,4333,19.31,75050.8,14.21,-21.97,-23.43,0,*77
1508140839.68,4334,19.31,75054.8,14.21,-22.63,-24.21,0,*7B
1508140840.94,4335,19.31,75054.0,14.21,-21.53,-22.93,0,*75
1508140842.22,4336,19.31,75052.8,14.21,-21.03,-22.47,0,*7A
1508140843.44,4337,19.31,75056.5,14.23,-20.83,-22.37,0,*77
1508140844.64,4338,19.31,75056.8,14.23,-20.89,-22.41,0,*73
1508140845.89,4339,19.31,75052.8,14.23,-21.27,-22.73,0,*76
1508140847.11,4340,19.31,75056.0,14.25,-21.43,-22.97,0,*76
1508140848.38,4341,19.31,75052.5,14.25,-21.57,-23.33,0,*7D
1508140849.61,4342,19.31,75054.0,14.25,-22.97,-24.57,0,*74
1508140850.86,4343,19.31,75052.0,14.25,-22.67,-24.25,0,*7F
1508140852.11,4344,19.31,75052.8,14.25,-22.57,-23.99,0,*7B
1508140853.36,4345,19.31,75054.0,14.25,-23.85,-25.39,0,*78
1508140854.59,4346,19.31,75050.8,14.23,-22.21,-23.59,0,*72
1508140855.83,4347,19.31,75050.8,14.23,-21.97,-23.49,0,*7C
1508140857.06,4348,19.31,75054.0,14.23,-22.21,-23.75,0,*72
1508140858.28,4349,19.31,75046.3,14.23,-21.83,-23.39,0,*70
1508140859.5,4350,19.38,75050.0,14.25,-21.39,-22.83,0,*7F
1508140860.73,4351,19.31,75048.3,14.25,-21.13,-22.53,0,*7B
1508140862.0,4352,19.31,75046.5,14.25,-20.79,-22.31,0,*71
1508140863.2,4353,19.38,75050.8,14.27,-21.39,-22.87,0,*7A
1508140864.42,4354,19.31,75046.0,14.27,-22.07,-23.65,0,*7E
1508140865.67,4355,19.31,75050.5,14.25,-23.43,-24.83,0,*73
1508140866.87,4356,19.38,75050.3,14.27,-22.83,-24.31,0,*76
1508140868.12,4357,19.31,75048.5,14.25,-21.63,-23.03,0,*7E
1508140869.37,4358,19.31,75048.5,14.25,-21.27,-22.67,0,*72
1508140870.57,4359,19.38,75052.3,14.27,-21.39,-22.87,0,*70
1508140871.76,4360,19.38,75052.0,14.27,-21.43,-22.83,0,*73
1508140872.96,4361,19.31,75046.3,14.27,-21.09,-22.53,0,*71
1508140874.22,4362,19.38,75048.0,14.33,-21.77,-23.23,0,*78
1508140875.45,4363,19.38,75048.0,14.31,-20.89,-22.31,0,*79
1508140876.65,4364,19.31,75048.8,14.31,-21.17,-22.67,0,*7B
1508140877.93,4365,19.38,75052.0,14.33,-21.03,-22.47,0,*7F
1508140879.16,4366,19.38,75050.5,14.33,-20.89,-22.27,0,*79
1508140880.43,4367,19.38,75048.3,14.33,-20.53,-21.97,0,*77
1508140881.66,4368,19.38,75046.3,14.37,-20.39,-21.93,0,*74
1508140882.91,4369,19.38,75046.8,14.37,-20.49,-22.03,0,*78
1508140884.11,4370,19.38,75048.8,14.39,-20.93,-22.37,0,*7E
1508140885.3,4371,19.38,75050.8,14.39,-20.93,-22.37,0,*7F
1508140886.57,4372,19.38,75046.8,14.41,-21.27,-22.77,0,*79
1508140887.85,4373,19.38,75048.5,14.41,-20.79,-22.17,0,*74
1508140889.07,4374,19.38,75050.5,14.43,-20.59,-21.97,0,*78
1508140890.29,4375,19.38,75048.8,14.45,-20.69,-22.27,0,*74
1508140891.54,4376,19.38,75050.3,14.45,-20.69,-22.17,0,*74
1508140892.79,4377,19.38,75052.5,14.43,-21.33,-22.77,0,*7B
1508140894.01,4378,19.38,75054.8,14.45,-21.13,-22.57,0,*72
1508140895.21,4379,19.38,75052.5,14.43,-21.47,-22.93,0,*7C
1508140896.45,4380,19.38,75052.8,14.45,-22.37,-23.95,0,*7F
1508140897.7,4381,19.38,75052.0,14.45,-22.57,-24.15,0,*77
1508140898.89,4382,19.38,75052.0,14.43,-22.07,-23.79,0,*7A
1508140900.11,4383,19.38,75058.3,14.45,-21.17,-22.67,0,*71
1508140901.35,4384,19.38,75058.5,14.45,-20.83,-22.37,0,*7F
1508140902.54,4385,19.38,75054.5,14.47,-21.09,-22.67,0,*7A
1508140903.76,4386,19.38,75054.5,14.47,-21.47,-23.03,0,*70
1508140905.04,4387,19.38,75058.8,14.49,-21.23,-22.77,0,*7F
1508140906.26,4388,19.38,75058.3,14.47,-21.33,-22.83,0,*74
1508140907.5,4389,19.38,75056.0,14.49,-21.27,-22.97,0,*7B
1508140908.73,4390,19.38,75060.0,14.49,-21.43,-23.09,0,*77
1508140909.98,4391,19.38,75056.5,14.55,-21.77,-23.23,0,*74
1508140911.18,4392,19.38,75060.0,14.53,-22.87,-24.51,0,*7F
1508140912.43,4393,19.38,75056.5,14.49,-23.19,-24.77,0,*77
1508140913.62,4394,19.38,75060.5,14.47,-21.43,-22.97,0,*7B
1508140914.9,4395,19.38,75062.8,14.49,-21.23,-22.77,0,*7C
1508140916.14,4396,19.38,75058.5,14.49,-22.47,-24.05,0,*7D
1508140917.34,4397,19.38,75056.3,14.47,-22.97,-24.35,0,*7C
1508140918.52,4398,19.38,75058.5,14.47,-23.39,-24.97,0,*7E
1508140919.75,4399,19.44,75058.0,14.43,-23.85,-25.35,0,*75
1508140920.99,4400,19.38,75052.8,14.45,-23.69,-25.23,0,*71
1508140922.21,4401,19.44,75056.5,14.41,-23.79,-25.39,0,*7E
1508140923.43,4402,19.38,75052.3,14.39,-25.09,-26.71,0,*7C
1508140924.63,4403,19.44,75058.3,14.39,-25.09,-26.87,0,*74
1508140925.85,4404,19.38,75054.8,14.35,-24.83,-26.45,0,*72
1508140927.08,4405,19.44,75056.5,14.35,-24.57,-26.33,0,*7B
1508140928.34,4406,19.44,75054.5,14.33,-24.47,-26.29,0,*74
1508140929.57,4407,19.44,75054.3,14.31,-24.41,-26.07,0,*7D
1508140930.8,4408,19.44,75052.5,14.27,-24.15,-25.65,0,*73
1508140932.03,4409,19.44,75052.5,14.27,-24.41,-26.07,0,*74
1508140933.31,4410,19.44,75054.0,14.25,-24.15,-25.81,0,*72
1508140934.58,4411,19.44,75052.8,14.25,-23.95,-25.45,0,*74
1508140935.82,4412,19.38,75054.3,14.23,-24.31,-25.97,0,*77
1508140937.05,4413,19.44,75054.0,14.23,-24.15,-25.61,0,*79
1508140938.33,4414,19.44,75056.8,14.21,-24.67,-26.33,0,*7D
1508140939.59,4415,19.44,75058.8,14.19,-24.71,-26.39,0,*7A
1508140940.82,4416,19.44,75058.0,14.19,-24.51,-26.03,0,*72
1508140942.05,4417,19.44,75056.0,14.17,-23.95,-25.61,0,*75
1508140943.25,4418,19.44,75056.3,14.17,-23.59,-25.09,0,*74
1508140944.44,4419,19.44,75056.0,14.17,-22.87,-24.47,0,*7C
1508140945.65,4420,19.44,75056.8,14.17,-23.43,-24.97,0,*72
1508140946.87,4421,19.44,75056.8,14.17,-23.19,-24.77,0,*72
1508140948.07,4422,19.44,75056.5,14.17,-22.97,-24.57,0,*74
1508140949.27,4423,19.44,75056.3,14.17,-23.59,-25.09,0,*7C
1508140950.52,4424,19.44,75052.8,14.17,-23.33,-24.83,0,*74
1508140951.77,4425,19.44,75054.5,14.17,-23.29,-24.71,0,*73
1508140953.0,4426,19.44,75054.3,14.17,-24.31,-25.97,0,*77
1508140954.24,4427,19.44,75054.0,14.15,-25.29,-26.87,0,*7E
1508140955.46,4428,19.44,75056.0,14.13,-23.85,-25.35,0,*7D
1508140956.71,4429,19.44,75058.5,14.15,-22.27,-23.85,0,*7E
1508140957.95,4430,19.44,75058.0,14.13,-23.03,-24.67,0,*7C
1508140959.19,4431,19.44,75056.8,14.15,-23.03,-24.51,0,*7E
1508140960.41,4432,19.44,75058.3,14.13,-22.41,-23.99,0,*7F
1508140961.64,4433,19.44,75058.5,14.15,-23.89,-25.61,0,*7C
1508140962.86,4434,19.44,75056.0,14.13,-24.61,-26.29,0,*73
1508140964.1,4435,19.44,75056.8,14.13,-23.85,-25.45,0,*76
1508140965.32,4436,19.44,75062.0,14.13,-23.23,-24.77,0,*79
1508140966.53,4437,19.44,75056.8,14.13,-24.31,-26.03,0,*7D
1508140967.77,4438,19.44,75058.0,14.11,-24.67,-26.23,0,*71
1508140968.99,4439,19.44,75058.0,14.11,-23.43,-24.93,0,*78
1508140970.2,4440,19.44,75052.3,14.11,-22.83,-24.35,0,*77
1508140971.39,4441,19.44,75054.3,14.09,-22.41,-23.89,0,*71
1508140972.63,4442,19.44,75056.5,14.11,-22.03,-23.69,0,*73
1508140973.87,4443,19.44,75056.0,14.11,-22.31,-23.79,0,*72
1508140975.1,4444,19.44,75054.8,14.11,-22.41,-23.95,0,*70
1508140976.32,4445,19.44,75056.8,14.11,-22.03,-23.43,0,*7C
1508140977.57,4446,19.44,75056.8,14.15,-21.93,-23.49,0,*7B
1508140978.84,4447,19.44,75056.0,14.15,-21.57,-23.03,0,*7C
1508140980.09,4448,19.44,75056.8,14.15,-21.03,-22.53,0,*76
1508140981.3,4449,19.44,75060.3,14.19,-21.47,-22.83,0,*76
1508140982.53,4450,19.44,75060.3,14.19,-21.47,-22.97,0,*7B
1508140983.77,4451,19.5,75060.5,14.21,-22.63,-24.11,0,*7C
1508140985.02,4452,19.44,75058.0,14.21,-22.77,-24.35,0,*7C
1508140986.25,4453,19.44,75056.0,14.21,-22.57,-24.05,0,*7C
1508140987.46,4454,19.5,75058.3,14.23,-21.47,-22.93,0,*72
1508140988.68,4455,19.5,75054.8,14.23,-22.53,-23.99,0,*7E
1508140989.9,4456,19.44,75054.8,14.23,-21.63,-23.03,0,*7E
1508140991.12,4457,19.5,75056.0,14.23,-20.99,-22.41,0,*7C
1508140992.35,4458,19.44,75054.5,14.23,-21.03,-22.53,0,*72
1508140993.57,4459,19.5,75054.8,14.27,-20.69,-22.21,0,*7F
1508140994.79,4460,19.5,75052.5,14.27,-22.53,-23.95,0,*70
1508140996.0,4461,19.44,75054.8,14.27,-21.73,-23.13,0,*7E
1508140997.23,4462,19.5,75056.5,14.31,-20.63,-22.17,0,*7F
1508140998.46,4463,19.5,75058.5,14.31,-20.63,-22.17,0,*7E
1508140999.69,4464,19.5,75060.0,14.33,-20.59,-22.07,0,*73
1508141000.92,4465,19.5,75056.3,14.37,-20.39,-21.93,0,*7E
1508141002.2,4466,19.44,75054.5,14.37,-20.83,-22.31,0,*77
1508141003.48,4467,19.5,75060.8,14.37,-20.79,-22.31,0,*73
1508141004.7,4468,19.5,75058.5,14.39,-23.09,-24.41,0,*77
1508141005.9,4469,19.5,75058.8,14.39,-21.43,-22.83,0,*72
1508141007.14,4470,19.5,75054.0,14.41,-21.03,-22.27,0,*7F
1508141008.37,4471,19.5,75056.3,14.41,-21.17,-22.53,0,*78
1508141009.64,4472,19.5,75058.3,14.41,-21.67,-23.33,0,*7B
1508141010.89,4473,19.5,75054.5,14.43,-21.33,-22.77,0,*78
1508141012.11,4474,19.5,75052.8,14.43,-21.39,-23.03,0,*77
1508141013.32,4475,19.5,75058.3,14.43,-22.07,-23.53,0,*7D
1508141014.51,4476,19.5,75054.3,14.43,-22.41,-23.89,0,*7B
1508141015.7,4477,19.5,75054.8,14.43,-22.87,-24.35,0,*70
1508141016.92,4478,19.5,75052.0,14.43,-22.41,-23.99,0,*74
1508141018.16,4479,19.5,75048.8,14.45,-22.21,-23.79,0,*7B
1508141019.38,4480,19.5,75054.3,14.43,-22.41,-23.99,0,*73
1508141020.61,4481,19.5,75056.5,14.43,-21.77,-23.23,0,*75
1508141021.82,4482,19.5,75058.5,14.43,-22.41,-23.99,0,*71
1508141023.05,4483,19.5,75058.0,14.43,-22.27,-23.85,0,*7D
1508141024.32,4484,19.5,75064.3,14.45,-21.57,-23.03,0,*76
1508141025.52,4485,19.5,75064.8,14.43,-23.59,-25.35,0,*7E
1508141026.72,4486,19.5,75064.3,14.43,-25.35,-27.03,0,*76
1508141027.92,4487,19.5,75060.0,14.39,-23.79,-25.39,0,*7F
1508141029.12,4488,19.5,75064.3,14.39,-23.75,-25.19,0,*7E
1508141030.35,4489,19.5,75062.5,14.39,-23.29,-24.77,0,*7F
1508141031.6,4490,19.5,75060.8,14.37,-24.15,-25.65,0,*73
1508141032.79,4491,19.5,75062.0,14.35,-23.39,-24.97,0,*75
1508141034.01,4492,19.5,75058.0,14.35,-23.33,-24.97,0,*7C
1508141035.26,4493,19.5,75052.5,14.35,-24.15,-25.81,0,*78
1508141036.55,4494,19.5,75052.3,14.33,-24.71,-26.33,0,*71
1508141037.81,4495,19.5,75054.5,14.31,-25.55,-27.35,0,*72
1508141039.08,4496,19.5,75056.8,14.25,-27.61,-29.29,0,*72
1508141040.28,4497,19.56,75060.5,14.23,-24.97,-26.65,0,*78
1508141041.54,4498,19.56,75062.0,14.21,-24.51,-26.17,0,*7A
1508141042.8,4499,19.5,75058.3,14.21,-24.41,-26.07,0,*7B
1508141044.06,4500,19.5,75052.0,14.19,-24.71,-26.39,0,*7F
1508141045.3,4501,19.5,75054.8,14.19,-23.89,-25.71,0,*71
1508141046.5,4502,19.5,75054.5,14.17,-24.57,-26.23,0,*7C
1508141047.73,4503,19.5,75054.3,14.17,-24.41,-26.07,0,*7C
1508141048.95,4504,19.56,75052.3,14.13,-24.83,-26.49,0,*7B
1508141050.19,4505,19.56,75052.0,14.15,-25.19,-26.97,0,*7D
1508141051.4,4506,19.56,75056.5,14.11,-24.93,-26.65,0,*74
1508141052.62,4507,19.56,75054.5,14.09,-24.83,-26.49,0,*73
1508141053.81,4508,19.56,75054.5,14.09,-25.23,-27.03,0,*78
1508141055.03,4509,19.56,75054.3,14.09,-25.39,-27.19,0,*79
1508141056.23,4510,19.56,75052.8,14.05,-25.13,-26.87,0,*73
1508141057.5,4511,19.56,75052.3,14.03,-25.03,-26.77,0,*7A
1508141058.74,4512,19.56,75052.0,14.03,-24.97,-26.77,0,*75
1508141059.96,4513,19.56,75052.0,14.01,-24.87,-26.49,0,*7A
1508141061.17,4514,19.56,75052.8,13.99,-25.19,-26.87,0,*7F
1508141062.39,4515,19.56,75052.0,13.99,-25.19,-26.87,0,*7E
1508141063.6,4516,19.56,75056.3,13.97,-24.93,-26.55,0,*7F
1508141064.81,4517,19.56,75054.8,13.97,-24.57,-26.07,0,*71
1508141066.06,4518,19.56,75054.8,13.97,-24.15,-25.71,0,*7A
1508141067.26,4519,19.56,75054.5,13.97,-24.57,-26.03,0,*7B
1508141068.5,4520,19.56,75052.3,13.95,-24.57,-26.03,0,*73
1508141069.78,4521,19.56,75052.3,13.95,-24.11,-25.75,0,*72
1508141071.04,4522,19.56,75058.3,13.95,-24.71,-26.39,0,*7C
1508141072.3,4523,19.56,75056.3,13.95,-24.71,-26.39,0,*7D
1508141073.55,4524,19.56,75058.5,13.91,-25.35,-26.97,0,*7B
1508141074.8,4525,19.56,75056.0,13.91,-26.87,-28.59,0,*7C
1508141075.99,4526,19.56,75054.8,13.87,-26.87,-28.69,0,*7B
1508141077.21,4527,19.56,75056.0,13.87,-27.07,-28.79,0,*72
1508141078.44,4528,19.56,75052.5,13.81,-26.49,-28.15,0,*7A
1508141079.71,4529,19.56,75054.0,13.81,-24.67,-26.17,0,*79
1508141080.98,4530,19.56,75054.8,13.79,-24.21,-25.71,0,*77
1508141082.23,4531,19.56,75054.0,13.77,-26.39,-28.09,0,*71
1508141083.5,4532,19.56,75054.5,13.77,-25.75,-27.45,0,*7E
1508141084.76,4533,19.56,75054.5,13.77,-24.31,-25.75,0,*7F
1508141086.02,4534,19.56,75052.8,13.75,-24.87,-26.33,0,*76
1508141087.23,4535,19.56,75054.3,13.75,-24.61,-26.03,0,*7C
1508141088.43,4536,19.56,75054.8,13.75,-23.89,-25.35,0,*78
1508141089.64,4537,19.56,75048.0,13.75,-23.13,-24.61,0,*7A
1508141090.84,4538,19.56,75050.0,13.75,-23.79,-25.39,0,*75
1508141092.1,4539,19.56,75054.3,13.77,-23.59,-25.03,0,*7D
1508141093.33,4540,19.56,75050.3,13.77,-22.97,-24.47,0,*71
1508141094.55,4541,19.56,75058.3,13.77,-23.79,-25.35,0,*75
1508141095.81,4542,19.56,75058.5,13.77,-23.59,-25.03,0,*71
1508141097.07,4543,19.56,75056.5,13.77,-24.41,-25.87,0,*72
1508141098.3,4544,19.56,75056.3,13.77,-24.47,-26.07,0,*78
1508141099.55,4545,19.56,75058.8,13.77,-25.03,-26.61,0,*78
1508141100.81,4546,19.56,75060.5,13.73,-26.13,-27.67,0,*7A
1508141102.04,4547,19.56,75062.8,13.73,-25.49,-27.13,0,*74
1508141103.23,4548,19.56,75058.8,13.71,-24.97,-26.45,0,*79
1508141104.45,4549,19.56,75058.0,13.71,-25.35,-26.97,0,*7E
1508141105.74,4550,19.56,75058.5,13.69,-24.71,-26.29,0,*7B
1508141106.96,4551,19.56,75056.8,13.71,-25.29,-26.87,0,*7B
1508141108.24,4552,19.56,75058.0,13.69,-24.15,-25.55,0,*73
1508141109.5,4553,19.56,75056.5,13.69,-23.99,-25.49,0,*7C
1508141110.73,4554,19.56,75058.5,13.71,-23.99,-25.49,0,*72
1508141111.98,4555,19.63,75062.5,13.69,-23.85,-25.35,0,*7C
1508141113.24,4556,19.63,75058.8,13.69,-23.99,-25.49,0,*79
1508141114.5,4557,19.63,75060.3,13.69,-24.21,-25.49,0,*7C
1508141115.79,4558,19.56,75056.3,13.69,-24.21,-25.81,0,*77
1508141117.05,4559,19.63,75062.0,13.69,-27.19,-28.91,0,*72
1508141118.33,4560,19.63,75058.8,13.65,-26.29,-28.09,0,*77
1508141119.58,4561,19.56,75056.3,13.59,-26.55,-28.25,0,*7C
1508141120.82,4562,19.56,75050.5,13.59,-26.33,-27.89,0,*76
1508141122.04,4563,19.56,75048.8,13.59,-25.87,-27.45,0,*7B
1508141123.28,4564,19.63,75056.0,13.55,-25.35,-26.93,0,*73
1508141124.57,4565,19.56,75052.8,13.57,-24.25,-25.71,0,*7F
1508141125.82,4566,19.56,75048.8,13.57,-22.47,-23.89,0,*7F
1508141127.02,4567,19.56,75050.5,13.59,-22.93,-24.47,0,*7C
1508141128.25,4568,19.63,75052.8,13.63,-22.67,-24.25,0,*75
1508141129.45,4569,19.63,75048.8,13.59,-23.59,-25.19,0,*7F
1508141130.71,4570,19.63,75050.8,13.59,-24.71,-26.29,0,*7A
1508141131.91,4571,19.63,75050.0,13.59,-24.97,-26.45,0,*79
1508141133.13,4572,19.63,75050.5,13.59,-25.03,-26.45,0,*76
1508141134.36,4573,19.63,75044.5,13.59,-23.59,-25.03,0,*7F
1508141135.59,4574,19.63,75050.0,13.63,-22.83,-24.25,0,*72
1508141136.79,4575,19.63,75054.3,13.59,-22.93,-24.51,0,*78
1508141137.99,4576,19.63,75052.5,13.59,-24.35,-25.87,0,*7B
1508141139.22,4577,19.63,75056.5,13.63,-23.49,-24.97,0,*7F
1508141140.47,4578,19.63,75058.5,13.59,-23.23,-24.83,0,*70
1508141141.68,4579,19.63,75054.8,13.59,-23.69,-25.19,0,*7D
1508141142.93,4580,19.63,75056.5,13.63,-23.99,-25.45,0,*74
1508141144.16,4581,19.63,75058.3,13.63,-23.79,-25.29,0,*71
1508141145.39,4582,19.63,75060.0,13.63,-23.49,-24.93,0,*71
1508141146.61,4583,19.63,75056.5,13.63,-23.65,-25.23,0,*74
1508141147.84,4584,19.63,75052.8,13.63,-24.25,-25.91,0,*79
1508141149.07,4585,19.63,75052.8,13.63,-24.41,-25.91,0,*7A
1508141150.3,4586,19.63,75056.3,13.63,-23.53,-25.23,0,*74
1508141151.51,4587,19.63,75056.3,13.63,-24.51,-26.07,0,*75
1508141152.73,4588,19.63,75054.8,13.63,-23.69,-25.23,0,*73
1508141153.95,4589,19.63,75056.8,13.63,-22.57,-24.11,0,*7E
1508141155.17,4590,19.63,75056.8,13.63,-23.19,-24.51,0,*79
1508141156.4,4591,19.63,75050.8,13.63,-23.79,-25.45,0,*7A
1508141157.62,4592,19.63,75056.0,13.65,-24.93,-26.45,0,*7F
1508141158.84,4593,19.63,75056.0,13.63,-25.23,-26.93,0,*79
1508141160.04,4594,19.63,75056.5,13.59,-25.49,-27.03,0,*73
1508141161.27,4595,19.63,75056.8,13.59,-23.03,-24.47,0,*79
1508141162.47,4596,19.63,75058.5,13.63,-21.93,-23.43,0,*7B
1508141163.68,4597,19.63,75056.0,13.63,-22.03,-23.43,0,*70
1508141164.9,4598,19.63,75052.8,13.67,-22.87,-24.41,0,*72
1508141166.16,4599,19.63,75056.0,13.65,-24.31,-25.75,0,*7C
1508141167.39,4600,19.63,75054.0,13.67,-23.59,-25.29,0,*7D
1508141168.68,4601,19.63,75050.8,13.65,-24.11,-25.55,0,*7E
1508141169.94,4602,19.63,75054.0,13.65,-23.99,-25.39,0,*70
1508141171.14,4603,19.63,75056.8,13.67,-23.79,-25.39,0,*7D
1508141172.4,4604,19.63,75054.3,13.63,-23.99,-25.55,0,*7A
1508141173.66,4605,19.63,75054.3,13.63,-23.99,-25.55,0,*7B
1508141174.88,4606,19.69,75058.8,13.63,-23.65,-25.13,0,*79
1508141176.11,4607,19.69,75052.3,13.63,-23.49,-24.97,0,*7B
1508141177.34,4608,19.63,75048.5,13.63,-23.53,-25.09,0,*79
1508141178.57,4609,19.63,75054.5,13.63,-23.49,-25.13,0,*78
1508141179.82,4610,19.63,75050.0,13.65,-23.79,-25.29,0,*7C
1508141181.02,4611,19.63,75054.5,13.63,-23.79,-25.23,0,*71
1508141182.28,4612,19.69,75054.8,13.65,-23.65,-25.23,0,*79
1508141183.5,4613,19.69,75056.8,13.63,-23.49,-24.93,0,*7A
1508141184.73,4614,19.69,75054.8,13.63,-23.53,-25.09,0,*74
1508141185.96,4615,19.69,75056.8,13.63,-23.65,-25.23,0,*78
1508141187.19,4616,19.69,75054.8,13.63,-23.53,-25.09,0,*76
1508141188.42,4617,19.69,75054.3,13.63,-23.49,-25.13,0,*77
1508141189.67,4618,19.69,75050.5,13.63,-23.99,-25.55,0,*77
1508141190.9,4619,19.69,75054.5,13.63,-23.79,-25.29,0,*73
1508141192.11,4620,19.69,75048.8,13.63,-24.47,-26.07,0,*7C
1508141193.34,4621,19.69,75048.3,13.59,-24.21,-25.87,0,*7F
1508141194.58,4622,19.69,75050.5,13.63,-24.25,-25.61,0,*79
1508141195.81,4623,19.69,75054.3,13.63,-24.15,-25.65,0,*7F
1508141197.04,4624,19.69,75052.3,13.63,-23.65,-25.23,0,*7A
1508141198.26,4625,19.69,75054.5,13.59,-23.59,-25.03,0,*7F
1508141199.47,4626,19.69,75052.3,13.59,-23.09,-24.47,0,*78
1508141200.66,4627,19.69,75048.0,13.59,-22.63,-24.05,0,*72
1508141201.91,4628,19.69,75050.8,13.59,-23.33,-25.03,0,*7E
1508141203.17,4629,19.69,75048.0,13.59,-24.67,-26.13,0,*7B
1508141204.37,4630,19.69,75046.3,13.59,-23.89,-25.49,0,*78
1508141205.62,4631,19.69,75044.8,13.59,-23.33,-24.67,0,*75
1508141206.84,4632,19.69,75046.0,13.59,-23.19,-24.51,0,*7B
1508141208.05,4633,19.69,75046.8,13.63,-23.43,-24.77,0,*78
1508141209.28,4634,19.69,75048.0,13.63,-23.19,-24.61,0,*77
1508141210.51,4635,19.69,75048.0,13.63,-23.49,-25.09,0,*7C
1508141211.75,4636,19.69,75044.8,13.59,-24.21,-25.49,0,*7B
1508141212.96,4637,19.69,75046.3,13.59,-24.05,-25.61,0,*76
1508141214.18,4638,19.69,75044.3,13.59,-23.89,-25.45,0,*7C
1508141215.38,4639,19.69,75050.0,13.59,-24.35,-25.87,0,*73
1508141216.58,4640,19.69,75046.3,13.63,-25.09,-26.61,0,*71
1508141217.81,4641,19.69,75044.0,13.57,-24.61,-26.23,0,*7E
1508141219.03,4642,19.69,75046.0,13.55,-25.87,-27.51,0,*72
1508141220.25,4643,19.69,75048.0,13.55,-25.39,-27.03,0,*71
1508141221.49,4644,19.69,75048.0,13.51,-25.03,-26.49,0,*74
1508141222.74,4645,19.69,75052.3,13.51,-24.61,-26.17,0,*7B
1508141223.97,4646,19.75,75052.3,13.53,-24.11,-25.61,0,*7F
1508141225.25,4647,19.69,75052.0,13.51,-24.21,-25.75,0,*7A
1508141226.51,4648,19.69,75050.0,13.51,-24.21,-25.65,0,*74
1508141227.77,4649,19.69,75048.8,13.51,-23.99,-25.45,0,*73
1508141229.0,4650,19.75,75048.3,13.51,-24.05,-25.49,0,*75
1508141230.25,4651,19.69,75048.8,13.51,-23.75,-25.29,0,*72
1508141231.48,4652,19.69,75046.0,13.51,-24.31,-25.65,0,*7E
1508141232.74,4653,19.75,75048.5,13.51,-24.35,-25.75,0,*7A
1508141233.94,4654,19.69,75044.3,13.49,-23.89,-25.49,0,*7B
1508141235.18,4655,19.75,75050.0,13.49,-23.85,-25.45,0,*7A
1508141236.45,4656,19.75,75044.3,13.51,-23.69,-25.03,0,*70
1508141237.68,4657,19.75,75048.8,13.49,-24.05,-25.55,0,*76
1508141238.91,4658,19.75,75044.5,13.49,-24.31,-25.75,0,*7C
1508141240.13,4659,19.75,75046.0,13.49,-24.35,-25.81,0,*72
1508141241.39,4660,19.75,75046.0,13.49,-24.71,-26.29,0,*79
1508141242.64,4661,19.75,75048.3,13.47,-24.77,-26.17,0,*7D
1508141243.93,4662,19.75,75050.8,13.47,-24.71,-26.33,0,*7E
1508141245.15,4663,19.75,75048.3,13.45,-24.61,-25.97,0,*71
1508141246.37,4664,19.75,75048.8,13.45,-25.13,-26.55,0,*7F
1508141247.6,4665,19.75,75048.5,13.45,-24.41,-25.91,0,*73
1508141248.82,4666,19.75,75048.5,13.43,-24.61,-26.07,0,*78
1508141250.1,4667,19.75,75048.0,13.43,-23.95,-25.55,0,*71
1508141251.32,4668,19.75,75050.5,13.43,-24.47,-25.91,0,*7E
1508141252.6,4669,19.75,75048.0,13.43,-23.95,-25.55,0,*7F
1508141253.82,4670,19.75,75054.3,13.43,-23.79,-25.23,0,*74
1508141255.06,4671,19.75,75052.0,13.43,-23.49,-24.97,0,*78
1508141256.28,4672,19.75,75046.3,13.43,-23.79,-25.23,0,*76
1508141257.54,4673,19.75,75046.0,13.45,-24.25,-25.71,0,*78
1508141258.79,4674,19.75,75050.5,13.43,-24.41,-25.87,0,*72
1508141260.05,4675,19.75,75046.5,13.43,-24.83,-26.39,0,*7B
1508141261.25,4676,19.75,75046.5,13.41,-24.61,-26.03,0,*7F
1508141262.5,4677,19.75,75042.0,13.41,-24.67,-26.29,0,*70
1508141263.74,4678,19.75,75044.3,13.41,-24.31,-25.81,0,*7D
1508141264.97,4679,19.75,75050.8,13.41,-24.47,-25.81,0,*7D
1508141266.21,4680,19.75,75046.0,13.37,-24.67,-26.17,0,*74
1508141267.47,4681,19.75,75048.3,13.37,-24.25,-25.81,0,*7F
1508141268.68,4682,19.75,75044.5,13.37,-24.51,-26.03,0,*76
1508141269.96,4683,19.75,75046.8,13.35,-24.25,-25.71,0,*70
1508141271.19,4684,19.75,75044.3,13.35,-24.35,-26.03,0,*70
1508141272.42,4685,19.81,75046.5,13.37,-24.51,-25.97,0,*7F
1508141273.69,4686,19.75,75046.3,13.35,-24.87,-26.33,0,*78
1508141274.93,4687,19.75,75040.5,13.35,-24.87,-26.23,0,*78
1508141276.18,4688,19.75,75044.0,13.35,-24.67,-26.03,0,*7B
1508141277.39,4689,19.81,75046.3,13.33,-24.57,-26.03,0,*7F
1508141278.67,4690,19.81,75048.0,13.35,-24.25,-25.71,0,*72
1508141279.9,4691,19.81,75048.0,13.33,-24.11,-25.61,0,*73
1508141281.15,4692,19.81,75048.5,13.33,-24.11,-25.55,0,*77
1508141282.4,4693,19.81,75044.8,13.33,-23.99,-25.45,0,*70
1508141283.61,4694,19.81,75046.0,13.33,-24.47,-26.03,0,*72
1508141284.84,4695,19.81,75046.0,13.33,-24.31,-25.75,0,*70
1508141286.04,4696,19.81,75044.8,13.33,-24.57,-26.07,0,*75
1508141287.27,4697,19.81,75044.0,13.33,-24.41,-26.07,0,*73
1508141288.46,4698,19.81,75044.0,13.33,-24.97,-26.45,0,*71
1508141289.73,4699,19.81,75048.0,13.31,-24.87,-26.29,0,*79
1508141290.98,4700,19.81,75040.8,13.31,-25.09,-26.71,0,*72
1508141292.2,4701,19.81,75046.5,13.29,-25.29,-26.65,0,*7D
1508141293.41,4702,19.81,75050.3,13.27,-25.09,-26.49,0,*7C
1508141294.64,4703,19.81,75054.0,13.27,-24.05,-25.39,0,*74
1508141295.89,4704,19.81,75048.8,13.27,-23.99,-25.39,0,*71
1508141297.11,4705,19.81,75052.0,13.27,-23.59,-24.97,0,*79
1508141298.35,4706,19.81,75048.3,13.27,-23.39,-24.87,0,*7D
1508141299.59,4707,19.81,75046.3,13.27,-23.85,-25.23,0,*74
1508141300.82,4708,19.81,75046.3,13.29,-23.79,-25.29,0,*7C
1508141302.03,4709,19.81,75042.5,13.29,-24.05,-25.49,0,*77